Starlink 31385

operational
NORAD ID: 58985 Int'l Des: 2024-031 Owner: SPXS Country: US Constellation: starlink
LEOCIRCULAR

Starlink 31385について

説明を読み込み中...

リアルタイム位置

3D地球を読み込み中...

次回通過

高度履歴

Altitude vs Time

uPlot chart will show altitude changes over time

軌道要素

1 58985U 24031W 25304.37079007 -.00000344 00000-0 50185-6 0 9999
2 58985 53.1590 175.2108 0001325 91.6608 268.4544 15.30189038 96742
Epoch: Oct 31, 2025 • Age: 26 hours

現在のステータス

高度 477.2 km
速度 7.63 km/s
衛星直下点 -6.03°S, 151.8°E
打ち上げ日 Feb 15, 2024
運用期間 1.7 years
タイプ internet

技術仕様

分類 Payload
質量 730.00 kg
乾燥質量 700.00 kg
総質量 730.00 kg
長さ 0.30 m
直径 4.10 m
スパン 29.00 m
形状 Box + pan
製造者 SPXS
バスタイプ Starlink V2M
フェーズステータス In Orbit
所有者/国 SPXS/US

大規模コンステレーション

Loading constellations...